RH
2 2 2 2 2 2 2 4 7 9 11 12 14 15 17 18 18 17 15 12 10 10 12 13 16 19 20 21 21 22 23 25 24 22 23 24 24 23 22 22 19 12 12 17 19 19 15 16 17 14 14 13 14 14 16 18 16 21 23 23 26 24 21 19 18 21 23 26 28 31 34 38 41 40 36 35 36 36 37 37 36 36 35 37 42 42 40 39
3 3 3 3 3 4 6 8 10 11 12 14 16 17 17 17 17 16 13 11 12 13 14 13 13 14 17 19 20 21 22 24 23 23 25 24 22 22 21 21 19 12 10 16 22 22 16 13 13 11 12 12 13 14 16 18 17 19 22 26 28 23 19 17 18 21 22 25 25 27 29 30 34 34 33 36 38 37 40 40 39 40 38 40 45 44 40 38
4 4 4 4 5 7 9 10 11 12 14 15 16 16 16 16 16 15 15 16 17 19 20 19 16 13 14 16 18 19 21 24 23 24 25 22 21 20 20 21 18 12 8 14 20 20 15 12 12 11 12 12 14 15 17 18 17 17 21 27 26 20 19 19 20 24 27 29 29 31 31 31 33 31 32 36 38 40 43 44 43 44 43 45 46 43 39 37
8 8 8 7 8 9 10 11 12 13 14 15 15 15 15 16 16 17 18 19 20 20 21 23 20 16 14 14 15 14 16 23 24 24 24 21 22 19 18 20 17 10 7 11 14 15 14 14 12 11 13 15 15 16 18 19 18 17 19 23 21 18 21 22 23 27 29 32 33 34 35 36 35 33 34 35 39 43 42 42 46 48 48 46 42 39 37 38
10 10 9 9 9 10 11 12 13 14 13 14 14 15 16 16 18 18 19 19 19 19 20 23 22 20 18 16 17 16 18 24 25 23 22 21 21 20 17 18 16 9 6 9 11 13 15 15 14 12 14 16 17 19 19 18 19 21 19 18 17 19 21 23 25 29 30 32 33 34 35 37 36 36 38 38 43 46 42 42 45 45 44 39 36 36 37 39
12 11 11 11 11 12 13 13 13 13 12 13 14 16 17 19 19 19 19 19 18 18 19 21 22 22 21 20 20 21 24 26 25 22 22 22 22 21 17 18 14 8 7 8 10 14 14 15 17 17 18 21 23 23 23 21 21 26 24 18 19 21 22 25 28 31 32 33 34 35 36 36 36 39 40 40 43 43 40 40 38 37 36 35 36 37 37 39
14 14 14 13 13 13 12 12 12 12 13 15 17 18 19 19 19 19 19 19 19 17 17 18 20 21 22 25 23 21 24 25 25 23 23 22 23 21 18 18 13 9 12 12 12 13 13 16 20 22 25 29 28 26 27 25 23 28 28 22 21 23 25 29 31 32 32 33 33 34 35 35 37 40 38 38 40 38 36 34 34 34 34 36 37 36 36 39
14 15 15 14 14 13 13 13 14 15 17 18 18 19 19 19 19 19 19 19 19 18 18 17 18 19 22 29 28 22 24 26 25 25 24 23 22 21 19 19 16 12 17 19 17 16 17 20 20 23 29 31 29 28 28 27 28 30 29 24 23 26 28 31 32 31 31 31 32 32 33 33 35 37 37 38 39 37 33 33 35 35 35 36 35 34 36 38
16 17 17 17 16 16 16 16 17 18 18 18 18 18 18 18 18 18 18 19 20 20 19 19 20 21 23 29 29 24 25 27 26 26 25 23 21 21 20 21 20 15 17 21 18 18 20 22 22 25 31 31 29 31 28 30 34 28 26 25 26 29 29 30 31 30 31 30 31 32 32 33 33 34 37 38 39 37 33 34 36 35 35 34 33 34 35 37
17 18 18 18 18 18 18 18 18 17 17 17 17 17 17 17 17 17 17 17 18 19 19 19 20 20 22 25 25 24 25 26 26 26 25 24 22 21 20 20 21 14 14 18 17 20 22 24 26 26 30 31 31 32 28 32 34 26 26 27 27 29 28 29 29 29 30 29 31 33 34 35 34 37 40 39 39 37 35 36 37 36 35 33 33 34 34 38
17 17 17 18 18 18 18 17 17 16 16 16 16 16 16 16 17 16 17 17 18 20 20 20 20 21 21 22 23 24 24 24 25 25 24 24 23 22 20 19 19 15 12 14 16 21 23 25 25 26 30 30 31 33 29 29 29 27 29 31 30 28 28 29 28 29 29 30 32 32 35 36 37 41 42 40 40 38 36 37 37 36 35 34 34 36 36 37
16 16 17 17 17 17 16 16 16 16 16 16 16 17 16 16 16 16 16 17 18 20 20 20 22 22 21 22 23 23 23 23 24 24 24 26 26 24 22 19 16 15 13 13 17 19 23 25 22 27 30 28 33 36 33 29 28 29 31 36 35 29 30 28 27 29 28 31 31 31 41 44 41 42 40 40 42 39 36 38 38 36 35 35 37 39 38 36
16 16 16 16 16 16 16 16 16 16 17 17 17 16 16 16 15 16 16 16 17 18 19 20 20 20 21 22 21 22 22 22 23 23 24 27 28 25 22 20 16 15 14 14 17 19 24 25 20 27 30 30 37 36 32 29 29 32 31 35 38 38 37 28 27 28 27 31 27 32 52 52 42 39 39 41 42 39 37 38 38 36 36 36 39 38 36 35
15 15 15 16 16 16 16 16 16 16 16 16 16 15 15 15 15 15 15 16 16 17 20 21 23 23 21 21 21 21 21 22 23 23 24 25 26 24 22 20 18 17 16 16 22 24 25 22 18 25 28 30 35 35 33 33 34 35 35 36 39 47 44 27 26 28 29 32 27 38 60 53 40 39 39 41 43 40 38 39 38 38 39 39 39 34 32 34
15 15 16 16 16 16 16 16 15 16 16 15 15 15 15 15 15 14 15 16 16 18 19 19 23 24 20 19 20 20 21 22 23 23 24 24 24 25 22 20 20 20 19 19 23 24 22 19 20 25 30 31 35 40 41 41 40 38 44 45 40 49 47 31 28 29 33 33 28 43 59 50 39 39 39 41 43 40 39 40 39 40 40 40 39 34 33 35
15 15 16 15 15 15 14 14 15 15 16 16 15 15 15 15 14 14 15 16 16 17 17 18 21 21 21 20 19 19 20 20 22 24 24 24 25 25 23 22 22 22 22 22 22 23 21 23 27 28 33 38 40 42 40 42 42 37 46 48 40 47 49 41 36 33 35 35 33 42 51 48 41 38 39 41 42 40 39 40 40 41 41 39 38 35 36 36
15 15 15 15 14 14 14 14 14 14 15 16 16 15 15 15 15 15 15 17 18 18 17 19 19 18 19 19 18 19 19 19 19 21 23 25 25 25 26 25 23 23 24 24 24 25 24 27 32 31 31 37 40 41 42 48 46 37 41 45 40 43 48 49 48 42 40 41 41 39 43 47 41 37 39 40 42 41 40 41 41 42 41 39 37 36 38 38
13 14 14 14 14 13 14 13 13 13 14 14 15 16 15 15 15 15 15 15 15 17 19 19 19 24 25 19 19 20 19 19 18 19 21 24 25 25 27 25 23 23 22 25 26 26 27 26 29 33 35 38 43 50 53 54 51 45 42 42 41 42 45 51 55 52 48 47 45 41 44 44 39 38 38 39 41 41 41 42 43 43 43 42 38 39 40 41
9 12 13 13 13 13 13 12 13 12 12 13 14 16 18 16 14 13 14 13 15 21 26 23 20 27 28 21 19 20 18 18 18 19 20 22 25 26 25 23 23 23 24 30 30 28 30 32 36 44 50 48 46 53 54 49 48 48 44 43 45 47 49 50 52 50 47 54 51 45 48 43 39 40 37 38 40 41 42 42 44 43 44 44 40 40 41 43
7 10 12 13 13 13 12 12 12 10 10 11 12 17 22 23 18 16 15 14 18 24 25 23 20 22 22 20 20 19 18 18 18 19 20 22 25 25 25 24 23 25 28 34 34 30 32 44 51 51 51 46 41 46 49 43 39 40 44 47 48 50 52 46 48 46 41 53 53 43 48 44 40 40 35 38 39 40 43 43 44 46 46 45 42 41 42 45
6 7 10 11 11 11 11 12 11 9 9 8 9 13 17 23 24 23 21 17 17 18 18 19 20 20 19 20 20 19 20 19 16 17 20 21 23 26 27 26 29 33 33 32 32 31 35 51 54 43 38 38 40 44 45 44 41 37 38 42 43 46 48 42 46 46 39 51 53 41 47 46 40 39 36 37 39 41 45 45 46 48 48 45 43 42 43 46
5 5 6 7 9 10 10 12 11 9 9 8 8 8 9 14 19 20 20 18 18 17 17 18 19 20 19 19 20 19 21 22 19 18 19 20 24 32 31 29 34 37 35 34 33 35 43 52 48 36 34 36 40 42 43 46 44 40 36 37 43 45 46 44 45 45 41 52 53 41 47 47 38 37 36 36 37 42 46 45 48 50 48 47 44 43 44 45
4 4 4 5 7 9 10 11 11 10 10 8 7 8 8 11 15 19 19 19 23 19 16 18 17 19 20 19 20 20 20 24 25 22 21 21 23 31 32 32 37 37 37 40 39 43 49 48 39 34 39 42 43 42 47 51 44 43 44 42 47 46 45 48 50 48 45 51 51 49 56 51 39 38 38 35 35 42 46 45 48 50 48 48 47 44 45 45
4 3 4 4 6 9 11 10 10 10 9 7 7 7 8 9 12 19 19 20 26 21 17 19 17 20 22 20 21 24 24 24 25 24 23 24 24 29 31 33 39 39 39 41 41 46 49 41 32 35 43 46 45 45 52 55 46 47 52 49 48 47 44 46 48 48 49 52 54 59 64 54 45 44 42 38 36 42 48 46 49 50 48 49 47 45 46 46
5 4 4 4 6 9 10 10 9 8 7 7 6 7 8 9 11 14 16 22 25 20 20 21 17 18 22 24 24 25 27 24 24 24 22 25 27 31 35 33 37 45 47 45 43 47 45 36 34 42 44 39 42 47 50 54 49 46 53 52 47 46 46 47 45 46 52 54 54 58 60 52 46 44 42 41 40 43 46 47 51 52 48 49 49 46 47 48
5 4 3 4 6 8 8 9 8 6 6 6 6 8 8 10 12 11 18 29 27 21 23 21 19 21 22 25 25 24 30 29 25 23 20 25 28 32 40 35 34 46 50 45 43 47 43 35 39 47 43 35 40 46 44 50 53 48 48 50 47 44 47 49 46 48 53 51 49 52 54 54 49 42 41 41 39 43 48 51 53 54 49 50 52 48 48 50
5 4 4 4 4 6 6 7 7 5 6 6 7 9 8 12 14 12 20 31 25 20 23 20 20 22 22 26 24 24 34 33 27 22 18 23 26 31 43 43 41 46 45 41 40 41 42 42 46 48 39 35 42 44 42 48 53 51 48 49 49 45 46 47 45 49 50 45 50 50 46 52 52 43 42 43 41 46 55 58 56 56 52 51 54 50 49 51
5 4 4 4 3 4 4 5 5 4 6 7 8 10 11 13 12 15 27 28 19 18 22 22 20 19 22 26 24 25 30 30 30 28 22 24 24 28 41 45 45 45 40 40 40 40 43 48 52 51 41 39 45 42 39 47 51 51 49 47 47 47 50 50 46 48 47 45 54 50 41 51 53 42 44 47 46 51 61 64 62 60 54 51 54 53 52 53
6 5 4 4 4 4 4 5 4 5 8 9 10 11 12 12 12 22 31 21 16 21 22 21 19 17 22 24 21 24 28 28 32 30 26 27 25 24 33 38 38 40 36 35 41 45 43 43 48 50 45 44 47 40 37 46 49 47 47 48 49 51 54 55 52 50 47 49 55 46 40 52 55 46 46 49 50 57 63 64 64 61 55 52 52 53 55 55
6 6 5 5 5 4 5 5 5 8 11 11 12 10 10 18 23 28 29 19 20 26 22 23 22 21 29 30 22 24 28 29 30 29 28 27 26 24 27 30 32 40 42 39 44 46 40 41 46 46 42 42 46 43 39 42 45 47 52 55 57 56 52 52 52 48 49 55 51 41 41 51 59 52 46 49 54 61 66 66 68 62 55 55 53 52 56 56
5 6 7 6 5 5 5 6 6 8 12 14 13 10 15 27 31 28 25 22 27 31 26 29 31 29 37 40 31 29 32 29 25 32 36 31 31 31 29 35 39 42 43 41 45 47 44 45 43 38 38 40 44 45 41 41 45 50 51 50 55 53 45 48 48 46 55 59 47 42 42 50 63 56 46 57 67 70 71 71 72 65 55 56 54 52 56 56
6 7 8 8 6 7 6 7 8 8 12 14 12 15 24 29 28 28 27 25 31 37 32 33 36 36 41 41 36 36 38 31 24 32 40 38 42 44 40 47 53 47 40 37 40 44 47 47 41 36 36 37 40 41 42 42 42 44 45 47 55 53 48 55 53 47 53 51 41 43 44 48 56 47 42 62 75 71 65 64 67 61 55 55 52 51 55 54
6 7 8 9 8 8 8 8 9 9 11 12 10 19 30 28 27 31 30 27 31 36 37 39 40 42 43 38 35 39 39 34 31 31 32 34 44 49 43 44 52 50 42 37 37 39 45 49 47 42 37 33 36 39 43 44 42 44 46 51 60 59 62 68 60 52 55 50 41 41 45 52 55 44 43 58 63 57 54 58 63 59 55 54 49 51 54 53
7 7 8 9 8 8 8 8 9 10 10 14 18 28 33 27 29 34 31 31 34 35 37 40 42 44 42 35 34 38 37 37 40 37 32 30 37 45 44 41 46 49 46 41 38 40 43 45 48 47 37 33 39 41 43 49 53 51 44 46 54 57 65 71 67 66 68 60 50 47 49 55 57 53 48 49 49 49 52 58 60 58 55 52 48 50 53 52
7 8 8 8 8 8 8 7 9 9 9 17 25 33 34 27 28 34 36 37 38 37 38 41 45 42 34 33 38 36 34 37 39 36 34 34 38 44 45 43 45 49 53 48 40 41 40 37 44 46 32 29 40 41 41 50 56 49 42 48 56 52 52 61 66 64 66 69 61 53 51 45 44 51 49 48 51 51 52 55 55 57 56 50 47 50 52 53
7 8 7 8 8 7 7 8 10 10 10 20 29 34 37 33 32 38 44 45 41 42 45 43 42 36 26 29 37 35 34 39 38 32 33 39 45 47 46 48 47 47 52 50 43 44 44 39 44 46 36 32 37 37 40 49 51 46 45 51 56 50 46 58 68 57 58 73 61 47 52 48 45 53 48 49 57 52 50 53 53 57 56 49 46 50 53 53
6 8 7 8 7 7 8 7 11 14 10 18 34 37 36 38 41 43 46 44 41 44 44 34 32 34 29 26 30 34 37 38 36 30 29 37 42 44 48 49 43 40 45 49 46 46 48 48 45 42 44 41 33 33 38 42 47 51 50 48 52 55 49 56 70 64 62 71 57 46 61 62 60 63 53 50 55 52 51 53 54 57 55 48 46 49 54 53
5 8 8 8 8 8 8 7 12 14 8 21 41 40 37 43 47 45 45 44 45 48 40 29 31 35 29 27 29 35 40 38 34 29 30 35 37 39 47 48 42 41 43 47 49 45 47 54 45 34 43 46 36 38 43 41 45 50 45 40 49 64 63 59 66 70 74 77 65 55 61 61 60 64 59 54 53 51 54 56 56 59 55 48 46 50 54 54
6 9 9 8 8 7 9 11 12 12 15 33 45 40 41 50 47 40 42 45 48 46 35 30 34 34 31 33 32 34 39 36 32 31 31 34 39 43 45 44 44 43 41 45 50 45 43 50 47 40 44 45 38 42 47 45 46 48 45 42 46 56 62 59 59 63 70 78 75 68 66 62 57 56 53 50 47 50 58 61 60 60 56 49 47 51 55 55
7 11 11 9 9 8 8 8 7 15 30 39 40 40 44 49 46 38 39 46 48 41 31 31 34 32 32 35 34 35 36 30 29 32 30 32 42 49 48 49 52 51 46 46 47 45 43 43 47 49 48 45 43 43 42 40 43 47 49 52 51 51 55 58 59 58 62 72 78 79 75 62 50 47 46 45 47 51 57 60 61 61 57 49 47 52 54 55
8 15 13 6 9 11 10 12 15 26 37 37 40 48 48 48 51 43 35 41 43 35 31 34 36 34 34 35 35 37 34 29 30 32 33 34 39 46 52 57 60 58 52 48 49 50 48 44 48 50 48 47 46 43 40 39 42 46 48 51 53 54 61 68 68 61 60 65 69 77 80 65 46 42 43 44 49 51 53 58 64 63 56 49 48 52 54 56
11 19 13 6 11 11 12 25 30 31 37 41 46 51 47 45 47 42 36 39 40 36 33 38 42 42 44 40 37 38 36 34 34 33 33 36 41 51 55 50 53 58 51 44 49 54 49 48 53 51 48 50 45 38 39 41 44 48 48 47 49 53 58 67 71 69 69 66 60 69 81 67 45 40 44 45 48 51 52 58 63 60 53 48 49 52 54 57
10 15 11 7 8 6 16 34 39 39 45 48 47 45 43 44 43 40 41 41 41 39 37 42 48 47 48 45 39 39 40 36 38 38 34 36 48 58 54 45 49 58 53 45 50 58 51 46 54 53 46 48 47 40 41 44 47 50 48 44 50 56 56 61 66 68 77 76 64 71 85 68 43 40 42 40 44 48 50 52 54 53 51 49 48 51 55 57
7 10 10 9 7 9 27 41 41 44 48 48 47 44 44 47 44 44 49 46 41 41 40 44 50 48 46 45 41 42 42 37 39 42 36 36 49 54 46 44 49 52 56 56 56 62 58 46 50 54 44 42 47 45 46 52 49 46 47 49 56 62 64 67 65 66 79 78 64 74 85 62 38 37 36 35 39 41 42 45 48 51 52 49 48 52 55 56
9 12 9 8 7 11 27 34 35 44 51 50 49 45 44 45 41 41 48 47 39 40 43 42 45 46 46 47 45 42 43 38 35 41 41 36 49 58 49 44 48 50 54 57 55 63 64 50 44 48 42 41 46 44 44 50 48 44 50 57 62 66 68 68 66 73 82 72 60 71 75 54 37 37 37 37 39 39 41 46 50 52 52 49 49 54 56 56
12 22 21 16 9 9 19 22 23 36 47 44 39 36 40 48 45 38 42 45 38 38 44 40 39 43 45 49 47 40 44 47 38 41 45 37 45 62 57 46 48 52 51 50 54 61 61 52 47 45 43 41 42 39 37 41 46 50 54 61 68 72 69 66 69 77 78 69 62 64 63 57 50 44 41 41 41 42 45 48 51 53 51 49 50 54 56 57
13 28 32 28 21 17 19 19 20 28 34 34 35 37 41 48 48 40 39 44 40 40 47 43 41 46 46 47 45 36 43 53 43 38 43 42 46 53 53 50 49 49 49 50 57 61 57 54 56 54 52 49 44 38 35 38 43 46 49 60 74 79 74 69 72 70 65 68 66 54 53 62 57 45 44 44 42 44 46 47 50 51 50 49 51 55 57 57
17 23 21 25 34 37 32 27 27 28 27 30 38 41 42 44 43 40 40 41 38 39 46 43 45 51 46 43 44 37 40 49 45 40 42 46 50 48 49 59 60 54 54 55 56 58 54 54 59 56 52 52 49 42 40 43 44 45 48 54 66 79 79 71 68 63 62 69 64 50 53 62 55 46 46 43 41 44 45 46 48 50 51 51 53 57 59 59
16 19 15 17 29 34 30 26 29 33 30 32 41 46 44 43 43 40 39 41 42 40 39 40 45 48 41 43 46 39 36 38 35 38 43 44 48 48 46 57 66 62 58 57 54 51 50 57 65 63 55 51 49 49 50 51 49 49 53 53 56 69 75 71 66 63 65 68 62 56 63 62 52 48 46 40 40 41 42 46 49 52 54 53 56 59 59 61
13 17 15 16 19 20 19 18 25 36 32 26 36 43 41 43 46 42 37 40 46 46 39 40 49 49 41 44 49 43 42 41 32 34 42 40 42 49 44 45 56 60 54 53 54 50 48 55 58 57 58 52 47 51 54 56 55 50 50 53 55 61 68 71 69 67 70 74 68 66 73 68 52 44 41 39 39 41 45 49 52 55 56 55 58 61 60 62
12 12 12 19 22 19 19 16 20 33 35 30 36 40 39 41 43 41 37 33 38 46 47 44 49 52 47 48 54 51 47 44 39 37 40 36 37 44 43 37 42 53 57 56 58 54 50 54 52 52 59 54 47 53 57 56 60 60 56 56 55 57 65 69 69 71 71 69 67 70 74 67 50 40 40 40 41 44 49 51 55 57 57 57 60 61 61 64
10 10 9 18 25 23 22 22 22 28 34 36 40 44 44 40 34 35 36 30 26 32 39 40 42 47 49 50 55 53 41 36 38 38 37 37 37 37 40 39 37 46 55 58 61 60 57 59 54 51 59 56 45 49 54 55 60 61 57 58 55 55 61 62 61 67 64 57 61 68 62 51 42 40 44 46 46 49 52 53 57 59 57 59 62 60 62 66
Wind_Speed
9 10 10 11 11 12 13 14 14 13 12 12 11 10 8 7 5 5 5 6 6 6 6 6 6 6 8 12 15 14 15 16 17 22 25 22 18 14 13 11 9 6 6 10 11 9 8 7 6 8 7 7 8 8 9 11 13 7 1 6 5 5 5 5 6 9 10 8 10 15 14 11 8 9 12 12 14 13 11 11 11 10 12 12 12 15 17 18
12 12 12 12 13 13 14 14 13 13 12 11 10 9 8 7 7 8 8 8 7 5 3 1 1 3 3 5 9 11 12 12 15 24 24 18 18 16 12 8 6 5 4 8 9 7 7 5 5 6 8 10 9 8 8 11 16 10 4 6 5 4 7 10 12 14 13 10 13 15 11 10 10 11 11 10 10 10 9 9 12 13 16 17 16 17 19 20
12 12 12 13 13 14 14 13 13 12 11 10 10 9 9 9 9 10 10 10 9 8 6 4 2 5 6 4 2 7 9 9 16 24 19 16 22 21 14 7 3 4 5 7 10 10 11 6 5 7 11 13 12 12 11 10 13 13 9 5 5 7 10 14 16 17 17 16 16 14 12 12 11 11 11 11 10 10 8 9 12 14 18 20 20 18 20 23
13 13 13 13 14 14 13 12 12 11 10 9 10 10 10 11 11 11 10 9 8 8 9 9 7 3 3 5 4 3 5 5 15 23 15 15 23 25 19 9 5 6 7 9 11 12 12 8 8 11 13 14 16 19 15 12 11 11 10 6 7 11 11 13 17 19 19 19 18 16 15 14 14 13 11 10 8 7 7 9 10 13 17 20 23 21 22 26
13 13 13 13 13 13 12 11 11 10 10 10 10 11 11 12 11 11 10 8 8 8 10 14 17 14 10 6 2 5 6 1 13 20 13 13 19 23 21 12 8 8 10 11 13 14 12 9 10 12 12 11 13 15 13 14 13 10 11 12 14 13 10 11 16 18 17 18 17 15 12 10 14 17 15 12 6 3 7 10 11 13 15 18 23 21 22 24
13 13 12 12 11 11 10 10 9 9 9 10 11 11 12 13 12 12 11 9 7 7 9 14 19 19 20 19 17 14 7 3 12 18 15 13 16 19 19 13 10 11 11 12 15 13 9 9 11 13 13 12 12 11 12 15 13 9 10 16 17 15 13 11 15 17 16 17 15 14 13 12 13 12 11 11 6 4 7 10 12 13 14 17 21 20 19 20
12 11 11 10 10 10 9 9 9 10 10 11 12 13 13 13 13 13 12 11 9 6 6 6 8 10 13 16 20 22 17 10 12 18 19 16 14 16 17 15 11 13 12 11 11 7 7 12 15 17 13 11 13 13 18 22 19 13 9 14 17 17 17 14 15 16 16 17 15 14 14 13 12 9 8 10 7 7 8 11 13 13 14 16 18 18 17 19
12 12 12 12 11 11 11 10 11 12 12 13 13 13 13 12 12 11 12 12 12 9 6 4 3 3 4 6 10 18 17 11 11 17 21 18 15 16 17 16 10 10 11 8 7 5 9 14 14 15 12 10 13 14 19 22 17 12 10 14 17 17 17 16 17 17 17 17 15 15 13 12 12 11 11 10 8 8 9 12 14 13 14 16 18 19 18 20
14 14 14 14 13 13 13 13 13 13 13 13 13 12 11 10 10 10 10 11 13 12 9 9 7 4 4 5 7 11 14 12 9 11 18 20 17 16 16 16 10 7 12 12 11 9 10 12 12 14 14 15 15 12 13 11 8 10 14 17 18 18 18 17 17 15 15 14 13 13 10 8 7 6 9 10 9 8 10 13 14 14 14 17 19 20 21 23
14 14 14 14 13 13 13 13 13 12 12 11 10 9 8 9 9 10 11 11 12 15 16 17 16 13 11 10 9 8 12 15 14 11 14 21 18 18 17 15 11 7 11 12 14 16 16 17 19 21 19 18 16 13 13 10 11 18 21 20 19 18 16 15 14 14 12 10 11 11 8 7 5 3 5 8 9 8 10 14 14 15 16 18 20 21 24 25
14 14 13 13 12 12 11 11 11 10 9 8 7 6 6 7 8 11 13 15 14 14 17 19 20 20 21 21 17 11 15 20 20 15 14 20 21 22 20 14 13 10 12 12 15 19 21 20 19 16 14 17 19 19 20 19 20 24 24 19 16 16 13 12 12 11 9 7 8 10 7 7 8 6 4 7 8 8 10 14 15 16 17 19 21 22 25 25
14 13 13 12 11 10 9 8 7 6 5 5 6 6 7 7 7 8 9 13 16 17 19 18 17 17 21 28 26 18 19 21 20 16 14 19 22 24 20 14 13 13 13 15 17 18 19 17 14 11 12 18 15 13 16 21 24 23 19 14 10 10 9 7 7 6 6 5 4 4 3 4 5 5 4 6 7 8 10 13 15 17 19 20 21 22 24 26
12 12 11 10 9 8 7 7 6 6 6 7 8 9 9 9 10 10 9 8 10 15 18 21 23 20 18 22 25 22 21 22 18 15 16 17 18 21 20 17 16 15 12 14 16 14 16 16 17 19 18 16 10 10 18 20 20 15 11 9 7 6 4 4 5 4 5 5 5 1 0 2 4 5 4 5 6 8 10 13 15 18 21 20 21 22 21 25
11 10 9 9 9 9 9 8 8 8 7 8 10 12 11 10 11 12 15 14 12 12 12 13 14 14 19 19 20 24 21 21 21 18 17 15 15 21 22 22 22 20 15 17 19 16 19 20 24 25 19 19 18 17 16 11 9 7 6 4 4 4 2 4 4 3 3 2 5 4 0 2 4 5 3 4 5 8 9 12 15 19 21 20 21 22 22 25
9 9 10 12 13 15 17 18 18 17 15 12 9 10 12 13 12 12 14 16 16 16 15 14 7 6 15 16 17 22 22 23 24 21 18 15 14 16 19 23 26 25 21 22 23 22 23 23 26 25 19 22 21 13 7 4 3 3 4 1 2 4 3 3 2 2 1 2 4 5 1 1 4 4 1 3 5 6 8 11 15 19 20 19 22 25 25 26
14 14 16 18 19 21 22 23 23 24 25 25 20 14 11 11 12 12 13 14 15 15 16 17 14 15 15 10 15 22 24 25 23 20 17 17 17 13 11 16 19 20 22 22 21 19 19 18 20 20 15 12 7 3 4 3 2 2 2 2 3 4 3 3 2 2 3 3 3 5 2 1 4 4 2 1 4 5 8 10 14 18 18 20 24 25 26 25
17 18 18 18 18 17 16 16 16 18 21 27 31 28 22 16 11 9 10 13 15 15 16 14 11 16 16 13 17 22 25 24 21 19 16 16 20 15 9 8 9 12 17 17 15 12 10 11 10 9 11 7 4 3 3 1 2 1 2 3 2 3 2 2 2 4 5 3 2 3 2 1 4 4 3 1 3 4 7 10 14 17 17 22 23 23 26 23
11 12 11 10 10 9 9 10 10 11 13 14 19 25 28 28 22 17 14 13 16 17 16 16 12 8 10 18 17 17 23 23 18 16 14 15 18 15 12 9 5 6 10 12 12 12 8 9 8 5 8 9 7 6 3 1 1 3 2 3 1 2 2 2 2 4 6 2 2 1 3 1 4 4 4 2 2 3 7 10 13 15 18 23 22 23 26 21
8 8 7 6 5 4 7 10 9 9 12 10 6 7 15 24 29 31 31 28 26 17 9 17 19 6 4 15 14 11 20 22 17 13 11 16 19 16 14 13 12 11 10 8 11 15 10 8 11 6 5 6 6 6 3 1 3 3 4 3 3 3 2 2 2 2 5 3 4 2 3 4 3 4 5 2 2 1 6 10 13 15 19 22 22 22 22 20
6 6 6 4 1 3 7 9 9 12 16 16 11 6 3 8 15 22 35 39 33 21 13 17 19 11 9 15 13 10 15 16 17 17 12 13 16 16 15 16 19 20 14 9 10 13 11 8 7 4 4 5 5 5 4 4 3 3 4 4 4 3 1 1 2 1 2 3 4 4 3 6 3 5 5 3 4 1 6 10 13 16 19 21 22 22 20 19
5 4 3 2 2 3 6 6 7 11 16 16 16 17 12 9 7 9 22 30 27 25 25 22 17 13 14 17 16 11 11 12 16 20 17 14 13 13 17 17 14 11 10 12 10 5 8 10 5 4 3 4 3 4 4 4 4 1 2 4 3 2 2 2 2 2 1 1 3 4 4 6 5 5 6 5 4 2 4 8 12 16 18 20 21 20 18 19
5 3 1 0 1 3 5 3 4 6 14 14 13 17 17 16 14 14 17 17 19 23 23 22 20 16 14 15 16 15 16 16 16 20 19 20 20 15 15 17 10 6 6 7 5 2 8 9 5 5 5 5 2 3 4 5 5 3 2 1 1 1 1 0 1 1 2 2 3 5 4 7 5 5 7 6 6 3 1 5 12 15 18 21 21 20 19 22
7 5 4 2 3 3 2 1 2 2 10 13 11 11 11 11 12 16 16 11 12 17 17 19 24 22 15 12 14 18 21 17 14 21 21 19 20 17 14 12 8 7 8 4 3 6 7 5 5 7 8 6 5 7 7 5 4 3 4 2 1 2 1 0 1 1 2 1 3 6 6 6 4 4 6 7 8 5 3 4 11 15 18 21 21 21 21 24
8 7 5 4 2 2 1 1 2 5 9 12 10 8 6 5 6 10 10 7 6 10 13 14 20 23 19 14 13 14 17 16 14 20 23 16 13 12 11 8 6 6 7 8 11 11 6 5 7 6 6 4 4 7 8 5 3 4 5 3 1 3 2 1 2 1 2 1 2 4 6 4 3 4 4 6 8 7 8 3 12 17 19 20 19 18 19 22
9 7 6 3 2 1 1 3 5 7 10 10 8 7 4 2 2 3 3 4 4 7 11 10 13 19 20 17 14 7 7 14 16 18 22 20 12 7 5 5 4 4 5 8 11 9 6 10 11 5 3 1 2 5 7 4 2 2 3 4 3 5 4 4 3 1 2 3 2 1 4 3 3 5 3 4 5 6 7 4 13 16 19 18 18 17 16 20
9 7 5 3 0 1 3 5 6 7 8 7 6 6 3 1 0 2 2 2 2 6 9 8 9 13 18 19 15 5 1 9 14 16 18 19 15 6 3 4 2 3 3 4 5 4 6 13 12 5 2 2 3 4 6 4 3 2 1 2 4 4 4 5 3 1 1 3 3 2 1 3 1 5 4 4 3 4 7 8 11 13 17 17 18 16 15 20
9 7 5 3 1 3 5 5 6 6 6 4 5 4 1 1 1 3 1 2 3 5 7 8 8 10 15 20 17 3 1 7 9 14 16 15 15 9 4 3 2 4 2 0 3 2 5 11 11 7 2 2 5 5 5 5 3 2 3 2 2 3 4 3 2 2 2 4 2 2 2 3 2 2 3 4 2 3 6 6 7 11 16 17 17 15 15 20
9 7 5 4 3 3 4 5 5 5 4 4 5 2 2 1 2 3 1 3 3 5 5 6 7 10 11 15 21 13 6 9 6 11 17 13 13 10 7 6 4 6 6 2 3 1 2 4 7 6 4 4 4 4 3 3 1 2 3 2 2 3 4 3 3 3 4 4 2 1 2 3 2 2 2 3 2 5 3 2 4 9 15 17 15 13 15 19
9 8 6 5 4 3 3 3 4 4 3 3 4 2 2 1 1 1 2 2 2 3 5 6 5 11 13 10 18 18 13 13 8 10 15 13 11 6 6 8 7 8 13 9 6 2 2 4 5 3 4 3 3 6 3 3 1 2 2 2 2 2 3 3 3 4 4 3 1 2 2 2 3 2 1 3 2 4 1 1 3 9 14 17 15 12 14 17
10 8 6 5 3 3 2 2 3 1 3 5 6 4 1 1 1 2 3 0 2 3 6 8 4 10 15 7 10 17 13 11 12 11 12 13 17 15 8 7 9 6 6 8 5 3 6 6 3 2 3 3 6 7 5 5 3 1 1 3 4 3 2 2 2 2 3 2 2 3 2 3 1 2 2 1 2 3 3 0 4 8 13 16 13 10 13 15
11 9 7 5 3 2 2 1 1 2 4 4 6 6 2 2 3 4 3 1 2 5 5 5 5 8 11 4 5 13 10 9 14 12 8 9 16 21 13 6 8 5 2 3 2 3 2 1 0 2 6 7 5 4 2 4 3 1 2 5 3 1 0 1 1 2 1 3 2 2 3 4 2 3 2 3 4 5 5 3 5 7 13 15 12 9 12 14
11 9 8 7 5 3 2 1 1 3 4 0 6 6 1 3 5 3 1 3 2 4 3 2 4 5 6 4 4 8 6 7 13 9 5 5 7 12 11 5 5 3 3 4 2 0 2 2 1 0 7 12 5 2 2 1 1 3 5 6 5 3 2 2 2 0 2 3 3 1 3 1 4 5 2 4 5 7 8 6 6 6 12 14 11 9 11 14
12 9 8 8 8 6 5 3 2 2 3 2 4 4 3 4 4 1 2 3 1 1 1 2 4 5 5 3 4 5 2 2 8 10 6 5 5 5 9 10 8 2 1 5 4 3 3 3 3 0 3 11 8 4 3 3 4 6 5 4 3 3 3 3 3 3 3 2 4 4 2 2 5 3 2 5 7 7 6 7 6 6 12 14 11 7 10 14
12 11 8 8 8 7 7 4 3 3 2 4 4 4 7 5 2 0 1 2 1 2 2 2 4 4 2 3 2 3 2 1 4 8 7 5 5 4 5 11 13 6 2 3 2 3 1 2 5 2 1 6 6 3 1 2 3 4 3 2 2 2 2 2 2 3 4 4 8 7 1 2 5 3 4 5 5 5 5 7 6 6 13 16 11 6 10 14
11 11 9 9 9 9 9 7 4 3 3 6 6 6 6 3 1 2 1 1 1 2 2 2 3 2 2 2 0 2 4 2 3 5 6 5 4 4 4 7 11 7 2 2 2 2 1 1 2 2 2 3 3 2 3 1 2 4 2 2 1 1 1 1 3 4 5 5 5 2 0 2 3 1 4 4 3 5 7 6 5 8 13 15 9 4 10 14
11 11 10 9 10 10 9 8 8 5 3 6 8 6 3 1 0 2 1 1 1 2 4 3 2 2 3 1 2 5 4 1 3 3 3 4 3 4 3 2 6 7 3 2 2 2 1 2 2 1 2 3 4 2 2 1 1 2 2 2 1 2 4 0 4 5 4 3 3 2 3 4 3 1 3 3 3 5 3 2 6 9 12 13 7 4 10 14
10 12 12 10 10 12 8 8 10 8 8 11 8 3 1 0 0 1 1 1 1 1 2 2 2 3 3 3 4 6 5 2 3 3 2 1 2 3 3 2 4 5 3 1 1 1 1 3 3 2 1 0 2 0 2 3 2 1 2 2 0 2 3 2 2 3 2 3 3 4 6 7 5 3 3 2 3 6 4 3 7 9 11 11 6 4 9 13
8 10 13 12 10 11 9 9 9 9 14 13 7 3 1 0 0 1 2 1 1 1 1 2 1 1 2 3 3 5 5 3 4 4 3 2 2 2 2 1 3 5 3 3 1 1 1 2 3 1 2 1 2 2 3 4 3 1 1 2 1 2 1 1 1 2 3 4 4 5 7 6 4 3 4 5 7 7 5 4 6 7 12 12 5 3 8 11
6 7 13 14 9 8 8 8 7 11 14 10 3 2 2 1 1 1 1 1 1 0 1 1 0 1 2 2 1 3 3 2 4 4 2 1 1 2 1 1 2 5 6 5 1 1 0 1 2 3 3 2 1 2 1 2 2 2 1 2 2 2 2 2 1 1 2 4 4 6 7 5 4 4 4 7 7 7 5 4 3 7 14 13 5 3 8 9
6 5 11 13 8 7 7 5 7 11 9 5 3 2 1 2 1 2 1 1 1 1 1 0 1 1 2 1 0 1 1 1 3 3 2 2 1 1 3 2 1 4 6 3 1 2 1 1 2 3 3 2 1 1 1 1 1 1 2 2 1 1 1 1 1 1 0 2 3 5 6 6 3 3 4 7 6 5 5 4 3 9 15 10 4 3 7 6
6 4 8 12 8 6 5 7 10 10 5 4 4 2 1 2 2 1 2 1 0 1 1 1 2 2 1 1 0 1 1 2 2 2 1 1 2 1 1 2 1 4 4 1 0 2 2 1 2 3 3 2 1 0 2 1 2 2 1 1 1 1 1 1 2 1 1 1 3 3 6 7 3 3 4 6 5 5 6 4 6 10 13 7 4 3 5 5
9 4 7 11 9 5 6 8 10 7 4 4 4 3 3 3 2 1 2 2 1 1 1 2 3 2 1 0 1 1 1 2 2 1 0 1 1 0 0 2 2 2 2 1 2 3 2 1 2 4 4 1 0 0 1 2 1 1 0 1 3 2 2 1 3 2 1 2 4 3 4 6 3 5 5 6 6 7 7 7 9 11 13 7 3 4 5 6
12 9 8 7 5 5 7 7 6 5 4 3 4 5 4 3 1 1 1 2 1 1 1 2 2 2 1 1 1 1 1 1 1 1 0 1 1 1 1 2 3 2 2 1 2 3 2 1 2 5 3 1 1 2 1 3 4 1 2 2 2 2 3 2 1 1 2 4 3 2 4 5 4 5 5 7 7 7 8 9 9 13 16 9 3 5 6 7
9 12 14 9 2 0 4 4 2 3 3 2 4 4 4 3 2 1 1 2 1 1 2 1 1 2 1 1 1 1 0 1 0 1 0 1 1 1 2 2 2 2 3 1 0 4 2 1 1 3 4 3 3 2 3 4 2 1 2 2 2 4 4 1 0 2 1 5 4 2 4 7 5 4 9 12 12 12 12 12 12 16 17 10 4 5 6 8
5 7 14 16 7 4 6 7 7 6 3 3 4 2 1 3 3 2 2 2 2 2 1 1 1 1 1 0 1 1 0 1 0 0 1 1 1 1 1 1 2 2 2 0 1 1 1 1 1 1 2 3 4 4 3 2 2 2 2 3 2 4 6 2 0 1 2 4 4 3 6 10 10 10 12 13 12 12 13 12 12 16 17 10 4 5 8 9
4 3 7 13 14 15 15 12 12 9 5 4 3 1 0 2 1 2 3 2 2 3 2 1 2 1 0 1 1 1 1 1 2 1 1 1 0 0 1 1 2 2 1 1 1 1 0 2 3 3 4 4 6 7 5 3 4 5 3 4 4 4 6 4 2 2 4 2 4 6 8 11 14 14 14 14 12 10 11 12 13 16 15 7 3 7 10 10
4 3 3 6 10 14 15 12 11 9 5 3 2 1 2 3 1 1 2 1 1 1 1 1 1 0 0 1 1 1 1 2 3 1 1 2 1 1 0 1 1 2 0 1 2 1 0 3 3 3 7 8 8 11 9 5 7 9 8 5 6 6 6 6 5 6 2 2 5 7 5 9 15 16 15 15 13 9 11 14 16 16 13 7 5 9 11 10
6 4 5 3 2 4 6 7 8 8 6 4 3 2 2 2 1 1 0 0 0 1 1 1 2 3 1 0 1 1 0 0 0 0 1 1 1 1 0 1 1 1 2 2 1 1 1 3 2 0 6 10 10 13 12 7 8 10 10 8 6 7 9 10 11 9 2 2 9 9 9 11 15 15 15 15 14 13 15 17 18 18 15 10 8 10 10 10
8 7 8 7 5 4 4 4 6 7 6 4 3 2 3 4 3 1 1 1 0 2 2 0 2 3 2 1 1 1 1 0 1 2 1 1 2 1 0 1 1 3 2 2 1 1 1 2 1 0 7 12 11 11 9 7 7 9 11 11 8 9 11 12 12 9 6 9 13 13 15 16 15 14 15 17 19 20 21 20 19 18 15 10 8 9 10 10
10 8 8 8 8 8 6 4 3 3 2 2 1 1 2 4 4 2 3 3 1 2 3 2 2 3 2 1 1 0 1 1 2 4 2 2 1 2 1 1 1 3 3 2 1 1 1 1 1 1 5 10 8 5 4 7 8 9 12 11 8 9 10 10 11 8 6 10 13 12 14 14 13 14 16 19 22 22 21 21 19 17 14 10 8 9 10 11
12 10 6 4 4 4 4 3 3 2 1 1 1 2 2 2 4 4 3 3 2 2 3 3 3 4 2 1 2 2 1 1 3 4 4 4 3 3 2 1 2 3 2 2 0 0 1 1 2 3 4 7 3 2 5 7 7 9 14 13 9 8 7 7 7 6 6 8 9 8 8 8 9 12 15 19 21 20 19 19 18 17 15 10 8 9 10 12
15 12 7 3 2 1 2 3 2 1 1 1 1 3 2 1 4 4 1 2 3 3 4 3 3 3 1 1 3 3 2 3 5 6 6 7 7 5 4 4 1 2 3 2 1 0 1 1 2 2 2 5 3 4 8 7 5 5 8 8 8 8 6 5 5 7 9 7 5 6 8 8 10 12 13 14 16 16 17 18 18 17 14 10 9 10 11 14
Wind_Direction
105 106 109 112 112 113 112 113 113 111 109 104 102 98 94 93 90 92 98 110 118 125 120 100 94 99 94 85 79 72 65 56 29 22 30 24 13 7 360 2 10 28 91 96 74 51 51 71 75 73 74 62 68 67 54 38 17 343 102 76 71 64 49 49 70 100 116 120 135 133 120 113 115 105 97 80 68 67 59 49 40 34 30 17 5 1 359 356
109 112 115 116 116 116 115 115 113 108 103 99 96 91 89 89 87 89 88 93 92 85 83 39 228 216 183 109 83 71 63 56 25 18 22 20 15 8 2 5 13 36 93 108 93 63 66 89 67 73 81 70 65 52 47 37 24 23 81 75 67 70 57 66 84 99 109 109 113 123 123 115 115 118 108 86 70 60 50 30 18 17 15 9 5 3 2 359
110 113 115 115 115 116 116 115 109 104 101 96 92 89 90 88 87 86 85 86 77 62 47 25 302 257 234 210 93 61 51 52 22 10 12 22 21 15 17 27 38 72 89 108 111 93 86 86 59 82 83 68 61 54 42 27 32 52 75 87 81 86 73 70 87 99 106 108 103 98 90 84 91 114 118 104 81 54 41 11 0 360 357 358 359 358 0 0
102 106 108 111 114 115 115 111 107 105 100 93 89 88 88 85 83 82 81 79 65 54 47 48 52 14 274 256 260 316 341 44 20 2 3 18 19 17 24 47 89 101 100 102 109 102 88 72 78 94 86 72 63 59 47 36 52 65 69 98 100 95 84 75 91 102 108 108 104 97 86 73 68 74 78 80 73 44 22 3 348 338 342 352 357 357 358 358
94 98 102 106 110 110 110 109 107 103 95 90 89 87 86 83 81 76 70 60 47 52 59 66 69 65 61 56 41 327 305 12 10 1 5 8 13 16 23 51 93 108 107 109 110 98 85 77 89 91 83 78 66 62 55 55 75 69 57 88 100 98 92 85 93 100 106 106 104 99 92 85 74 67 56 55 67 20 340 345 343 341 350 357 358 357 354 356
89 92 96 100 103 106 107 105 102 97 93 92 91 89 87 84 79 72 64 54 45 56 73 78 75 72 71 69 69 60 65 70 3 9 21 10 12 18 28 54 95 112 106 113 108 91 85 88 83 78 76 73 63 66 61 58 82 87 62 79 92 99 101 98 97 100 106 102 102 100 101 104 92 80 64 59 58 348 338 355 0 1 3 360 358 356 354 358
85 86 90 94 96 100 99 98 97 95 95 93 91 89 87 82 75 70 65 59 55 64 86 91 80 68 63 65 65 63 69 58 19 29 31 20 22 23 37 60 92 111 105 108 99 79 89 93 89 86 82 75 72 77 73 67 76 91 85 84 91 99 102 105 103 104 105 100 103 109 108 102 98 95 70 58 39 6 11 19 14 9 3 360 360 359 359 0
78 82 85 88 92 95 95 98 98 98 97 92 90 87 81 74 70 67 65 62 60 65 77 74 73 44 39 66 63 52 48 35 26 37 31 26 35 33 43 58 69 107 105 95 96 106 99 90 91 90 82 88 98 99 89 76 67 77 98 100 100 102 105 110 106 105 103 102 107 105 100 97 99 93 66 46 21 15 24 21 13 8 5 4 5 6 5 3
77 81 84 88 92 96 99 100 99 97 93 90 88 82 75 68 64 62 64 66 66 73 83 79 71 59 59 72 69 49 33 22 17 22 25 31 41 39 46 61 60 109 115 96 96 100 93 87 91 101 97 92 101 108 97 83 69 91 106 109 108 107 113 115 112 115 111 113 113 101 96 96 104 98 62 31 7 12 22 19 11 8 9 9 10 10 7 3
78 82 85 89 93 96 97 95 94 92 89 87 82 74 69 64 63 65 67 71 76 83 87 83 75 70 76 76 79 62 32 31 25 13 28 35 42 41 45 71 76 107 124 112 104 95 92 95 99 104 98 84 82 81 82 96 115 113 110 109 112 114 120 122 120 122 116 116 114 105 103 85 69 81 54 13 6 14 18 18 12 10 12 12 12 10 6 1
80 83 86 87 87 87 86 86 85 83 79 72 64 58 57 64 74 76 73 71 77 87 86 82 77 70 70 69 71 56 33 38 31 25 43 39 37 38 41 73 93 108 123 118 113 111 110 111 112 105 91 89 85 77 85 108 121 119 116 110 112 116 118 123 124 126 117 110 109 105 113 94 66 67 48 360 359 2 13 17 12 13 12 11 10 7 5 1
80 80 80 77 76 73 71 72 67 62 57 52 55 57 58 66 76 80 76 71 73 79 78 76 76 73 65 58 54 44 37 40 32 25 40 37 33 34 42 71 98 112 118 112 112 119 120 120 124 113 106 108 97 87 104 120 123 122 120 111 114 117 113 123 125 137 135 136 135 95 102 110 76 74 42 358 350 351 15 19 12 14 11 9 9 6 4 360
75 73 72 69 66 63 59 54 53 57 60 68 71 66 67 67 66 70 72 75 78 80 79 73 69 65 64 57 46 41 43 43 41 36 42 46 36 34 53 75 90 102 107 104 107 120 122 118 117 114 118 116 102 119 128 132 132 128 124 120 133 121 104 139 133 160 170 182 185 116 4 132 99 99 50 0 345 354 19 20 13 14 10 9 6 1 1 358
71 70 69 68 66 65 64 62 65 68 71 82 80 69 65 65 69 74 74 77 79 79 77 71 64 51 56 63 46 39 41 44 48 47 51 67 54 42 62 77 81 87 91 96 96 102 113 113 109 104 103 106 113 127 130 141 147 136 138 151 158 120 121 160 155 200 201 216 175 137 333 165 121 117 62 0 348 360 20 18 15 15 10 6 358 354 2 2
76 79 76 78 81 82 82 80 77 73 71 73 77 70 65 67 71 75 77 76 72 75 77 73 75 56 56 57 42 37 38 41 45 43 47 69 63 43 59 75 79 81 83 92 94 97 104 99 96 97 99 111 121 129 128 157 184 154 140 291 3 95 127 160 149 247 267 311 173 149 336 188 129 124 100 359 355 5 18 17 18 16 8 1 353 354 2 3
78 85 90 93 94 93 87 80 74 70 68 67 68 68 68 70 72 78 80 73 71 77 80 76 71 66 62 42 32 35 34 38 44 46 48 59 59 42 48 66 73 77 77 81 86 93 94 80 84 95 97 111 129 139 150 151 156 175 116 39 31 98 155 172 122 342 319 298 220 183 240 305 133 142 156 359 353 9 18 18 20 17 8 359 354 356 2 1
80 86 93 97 95 92 80 66 64 66 69 70 69 68 69 69 71 83 77 70 75 72 71 76 68 63 58 33 25 23 25 36 42 45 49 55 59 50 38 50 62 77 79 73 68 70 70 61 79 89 64 46 5 41 141 119 70 31 60 84 52 94 156 178 145 1 342 285 251 205 248 11 132 169 186 232 330 6 16 18 23 18 7 357 356 3 3 1
84 88 91 94 96 85 53 35 40 52 57 61 67 68 67 66 68 74 75 77 76 65 58 52 47 66 42 20 14 8 23 35 34 36 44 55 62 51 34 47 80 100 82 67 50 44 51 48 59 70 36 32 17 26 81 114 351 355 40 124 96 67 74 79 147 351 348 298 278 272 264 239 151 193 211 212 287 1 12 18 22 13 4 357 0 9 4 359
74 92 102 110 109 54 13 12 23 39 40 37 53 68 62 61 63 62 61 64 63 57 43 34 41 71 8 6 3 13 35 38 33 35 44 53 56 48 46 64 77 80 73 62 41 35 43 42 42 49 10 13 16 20 52 333 318 17 38 71 85 84 47 22 121 23 4 329 279 248 259 261 190 200 202 191 258 331 9 12 15 8 4 358 2 10 4 359
66 99 128 147 169 358 1 13 45 58 50 47 54 67 64 53 55 52 53 58 60 63 61 47 47 52 33 21 17 35 43 34 34 39 38 48 49 43 51 64 63 60 57 58 47 34 50 67 46 40 2 356 8 355 334 309 325 62 67 72 99 125 128 236 158 116 359 337 277 232 258 272 234 209 190 186 250 328 15 2 13 12 2 358 4 9 3 358
66 94 149 190 290 6 14 27 77 66 44 40 49 62 66 60 71 67 60 60 58 58 56 51 48 37 33 33 32 44 41 27 38 43 42 54 60 50 47 51 51 48 58 75 78 45 59 70 43 29 5 321 317 308 311 319 323 13 116 130 144 156 140 181 148 153 144 48 276 258 267 263 245 216 183 191 244 71 30 353 18 17 358 357 6 7 358 353
54 62 95 59 1 38 25 40 115 57 27 23 39 60 66 68 81 84 77 68 53 49 48 44 44 40 37 40 41 49 45 33 32 35 45 59 60 55 49 53 53 37 53 88 112 71 55 55 22 12 344 302 299 319 332 329 310 317 333 121 118 31 94 92 79 147 134 118 277 311 304 269 256 206 172 193 224 126 101 343 28 19 356 356 3 2 357 352
39 45 57 58 46 46 21 33 174 342 3 9 25 54 68 70 78 80 81 82 57 44 37 34 36 34 35 35 38 48 48 41 20 15 29 52 51 45 44 48 54 47 39 53 85 65 59 40 355 356 343 338 18 15 7 342 331 22 14 14 70 15 41 289 331 220 194 192 284 324 307 277 260 195 162 198 214 151 186 309 24 20 1 358 360 360 355 351
28 35 53 64 60 42 11 342 293 305 336 353 14 40 65 79 87 90 83 94 85 40 26 28 27 27 26 17 18 36 44 42 28 14 20 35 40 40 41 33 41 53 44 53 65 69 70 12 343 320 307 328 10 22 22 355 357 52 33 27 358 343 346 263 294 241 253 281 279 310 302 280 215 186 153 193 204 175 198 269 20 17 4 357 355 355 350 349
22 27 43 54 79 51 303 290 297 310 330 342 2 17 35 92 119 127 94 98 95 19 14 20 16 18 15 6 3 13 46 40 28 14 20 30 31 35 33 18 40 40 22 44 59 68 48 1 348 310 261 32 57 44 33 3 348 40 31 14 330 325 320 302 322 325 317 311 233 247 329 313 181 159 127 171 189 173 175 71 29 11 0 354 349 349 348 348
20 22 32 36 124 240 277 285 301 318 332 345 356 2 25 36 260 187 188 118 64 354 360 3 358 11 13 6 357 332 94 36 20 14 26 34 31 31 15 3 62 59 20 38 61 73 7 356 351 332 258 79 68 55 43 34 4 325 275 320 320 317 306 298 318 328 328 309 238 173 347 309 193 143 142 180 194 127 113 63 32 4 354 349 343 345 350 350
19 15 15 11 314 269 286 299 312 322 332 342 343 343 44 47 165 179 175 96 41 351 353 355 356 15 19 17 17 32 196 353 3 20 30 40 35 41 48 18 67 57 5 14 59 51 355 354 350 343 339 61 48 27 27 52 40 297 241 255 293 290 280 273 274 237 267 308 281 196 242 288 270 173 170 202 243 60 79 53 21 356 347 342 340 342 350 350
16 9 1 349 331 303 300 315 323 329 338 334 337 334 179 113 152 181 104 82 19 346 349 349 358 16 22 28 34 52 48 8 7 17 23 34 32 45 62 37 53 44 25 77 101 54 359 341 323 337 13 35 33 341 351 82 72 261 212 217 246 278 290 295 283 249 276 310 314 302 292 308 293 248 256 247 298 19 42 64 359 338 340 340 338 338 346 349
11 5 359 345 334 323 311 324 336 347 14 22 22 60 169 152 174 188 82 96 1 349 353 352 354 3 6 27 35 37 38 32 23 10 24 33 26 53 85 38 48 54 40 64 115 181 217 229 273 330 20 11 323 299 298 142 246 261 178 240 253 264 279 270 270 262 282 286 270 324 349 3 305 251 258 281 317 349 302 120 328 317 336 340 335 335 343 348
9 5 2 352 337 338 331 339 354 46 90 74 52 47 81 108 116 62 47 354 336 344 345 4 4 350 356 15 30 20 26 30 10 5 28 37 35 50 77 44 37 58 54 61 94 189 213 217 254 23 21 302 272 288 277 208 217 188 155 269 241 221 234 219 228 252 285 270 230 309 22 82 324 238 150 241 252 234 222 187 284 300 335 338 331 332 340 347
14 13 14 11 1 356 352 350 21 145 143 80 31 16 49 74 46 72 62 305 330 347 343 4 2 351 1 24 19 3 5 6 1 7 21 21 31 37 40 26 14 34 98 43 63 196 220 226 337 34 13 339 280 276 279 212 185 158 318 319 295 290 91 228 228 183 285 289 223 294 6 91 181 263 227 200 218 203 187 210 254 301 339 334 329 331 338 345
21 27 37 46 61 65 70 86 70 161 186 230 1 356 44 65 33 60 8 319 314 358 358 333 345 348 349 7 16 356 351 351 353 1 17 21 36 38 45 39 347 27 66 356 313 233 356 340 285 245 20 11 354 335 358 313 36 8 346 352 346 350 14 340 345 82 314 299 209 182 23 44 232 261 232 195 223 212 192 206 238 322 340 329 327 328 337 343
23 33 46 58 69 67 67 83 79 144 199 301 337 354 61 75 43 51 333 353 317 321 316 259 313 318 306 349 15 348 318 312 346 351 359 41 64 58 66 48 15 23 31 343 339 357 335 300 322 204 18 16 25 39 2 332 352 352 346 1 1 10 11 345 344 330 311 304 293 305 9 283 272 279 216 205 215 212 206 213 232 330 341 329 323 324 341 343
24 30 37 46 49 44 44 48 59 107 90 6 3 38 55 69 76 144 15 31 33 278 286 272 299 304 334 49 27 353 359 274 353 359 354 31 51 23 35 29 20 19 311 348 4 351 5 308 340 2 323 2 39 86 168 268 316 306 292 346 21 50 21 325 335 329 303 301 310 316 4 287 293 276 206 196 191 209 231 223 234 329 341 331 320 323 344 342
25 28 35 40 35 32 32 37 62 97 77 41 49 59 57 73 90 28 24 357 345 310 312 331 297 291 54 66 27 42 48 359 358 16 13 30 39 12 6 4 10 14 341 1 6 318 48 206 305 23 44 37 62 127 174 140 311 278 279 10 349 182 122 285 269 255 268 296 309 310 233 273 294 206 185 167 169 235 239 228 266 326 337 332 323 332 347 343
25 26 35 38 35 35 34 52 73 86 98 71 64 62 60 84 49 13 355 273 309 324 319 326 333 8 37 41 7 22 36 345 325 354 38 46 48 33 28 358 1 17 35 33 3 336 336 264 225 87 36 63 101 148 179 134 303 301 346 1 265 168 128 127 276 254 247 286 308 319 299 297 330 308 214 179 207 258 263 278 311 327 333 330 333 351 348 346
19 25 31 34 37 35 42 73 76 77 87 80 74 78 68 91 115 333 345 340 263 266 323 342 3 28 24 14 6 354 346 312 320 344 38 50 47 19 5 39 22 21 43 16 351 96 317 286 240 163 21 33 133 139 277 249 239 33 353 296 269 87 101 127 266 291 303 291 294 314 307 306 317 297 264 256 286 304 331 333 327 334 325 323 342 358 345 346
10 21 27 29 35 37 54 83 78 82 84 75 79 97 24 318 150 262 274 301 231 229 13 28 14 60 35 23 359 328 336 354 341 356 37 27 29 359 329 32 40 25 10 328 312 167 183 307 282 309 36 171 142 18 315 262 240 204 286 285 72 72 2 283 270 292 314 314 301 306 312 305 275 255 300 314 311 319 325 315 331 331 316 324 1 12 344 345
16 23 23 20 24 39 59 81 83 88 84 72 92 110 52 134 133 322 257 222 217 79 48 44 59 97 56 42 327 306 344 11 340 353 41 22 359 19 26 35 359 5 357 348 5 256 166 90 294 322 35 86 115 46 338 254 256 266 335 15 74 127 210 264 293 238 280 310 310 316 321 304 236 220 289 303 305 316 311 301 315 312 318 336 27 27 349 344
31 42 24 15 26 51 62 89 78 73 74 65 89 108 77 137 151 342 28 178 212 85 75 332 47 79 72 57 320 290 314 339 347 4 18 355 351 37 53 60 321 325 339 351 29 305 307 142 270 319 23 33 178 204 247 127 121 344 11 34 21 359 171 200 257 211 210 294 300 318 311 291 255 200 248 281 296 296 279 281 287 301 319 346 57 12 352 339
43 58 21 18 33 54 74 84 56 51 70 79 75 82 105 125 138 17 35 61 154 78 96 113 74 88 90 29 214 228 286 335 7 21 353 4 46 21 15 53 345 310 323 338 55 352 349 312 293 303 311 285 194 138 354 27 117 97 47 139 105 31 41 352 294 255 93 216 249 287 290 285 271 194 236 271 281 278 277 273 259 285 317 359 74 5 349 329
53 50 8 21 35 45 87 77 39 34 81 82 71 88 107 124 135 58 16 25 91 90 71 75 60 65 76 36 171 205 308 348 354 9 5 357 50 98 241 35 31 357 353 81 103 52 16 297 293 282 272 270 184 194 350 343 32 82 150 145 110 126 171 229 280 298 336 256 245 244 259 275 248 198 228 258 258 268 284 274 261 291 330 5 46 346 340 324
50 40 10 15 34 48 80 79 36 35 73 81 88 88 84 94 90 47 5 18 22 292 39 68 55 49 67 241 227 222 333 13 281 242 219 299 11 156 181 44 40 28 21 84 99 29 358 182 253 277 274 3 300 241 295 10 26 20 244 185 137 149 165 199 250 8 330 265 260 258 257 271 240 207 252 291 288 287 296 297 302 324 339 345 331 327 327 321
40 38 28 21 330 340 76 97 100 77 83 102 91 71 65 66 51 65 91 20 11 333 11 70 87 65 90 256 295 234 189 55 221 199 170 276 273 206 184 99 70 35 32 90 31 359 350 176 234 304 316 336 337 324 333 356 15 248 230 147 122 120 109 84 189 86 319 249 227 223 266 275 276 289 318 327 326 323 323 327 337 338 332 322 306 316 320 323
25 40 35 34 45 103 88 110 135 121 120 124 94 70 77 65 46 67 74 34 32 36 27 78 103 82 90 308 327 247 269 16 262 193 39 291 270 221 212 148 114 77 49 42 246 341 341 254 278 343 347 324 313 302 302 320 298 260 163 133 132 138 142 149 215 161 241 251 230 223 261 279 296 311 320 325 327 329 330 331 335 332 325 317 304 316 325 329
42 39 23 31 50 74 84 102 117 113 131 139 95 41 38 62 34 54 53 31 42 56 55 88 118 105 67 269 236 220 217 51 49 36 270 264 312 82 256 244 158 151 27 13 175 159 245 275 249 219 222 238 255 264 279 333 300 277 240 190 180 170 167 142 88 215 213 265 279 248 250 282 299 307 314 320 323 323 324 326 327 325 325 326 325 329 332 327
54 35 1 18 46 64 75 83 91 101 137 150 105 116 102 83 86 20 19 359 33 53 44 58 171 206 285 270 284 234 194 102 71 42 276 261 348 42 189 227 197 207 176 105 141 127 299 275 262 237 241 241 251 268 282 298 271 264 266 234 183 167 163 154 195 230 188 29 282 256 267 296 296 300 308 312 314 315 319 327 329 327 332 346 337 328 329 319
60 61 44 41 45 55 60 60 70 88 105 102 107 148 122 114 167 212 30 28 36 187 151 53 236 239 245 332 3 346 260 104 98 294 293 270 311 354 194 204 194 181 129 116 140 88 77 273 281 235 264 263 263 268 269 264 256 255 259 251 209 179 175 188 225 239 189 215 256 274 305 295 286 295 300 299 308 318 322 329 331 330 336 344 327 319 321 312
56 62 50 56 80 82 74 81 81 79 82 86 105 149 149 155 177 191 155 144 204 210 199 253 224 207 165 99 80 33 317 325 263 264 219 181 240 242 241 290 195 193 187 157 168 85 123 256 252 214 285 285 279 270 253 233 248 259 254 250 232 207 199 208 236 243 223 243 262 280 290 283 277 282 282 289 307 318 323 329 332 331 332 330 316 313 314 308
47 53 51 62 75 68 65 76 65 52 60 82 100 189 187 174 183 186 167 169 166 190 200 206 161 140 122 104 127 221 247 156 196 234 204 167 249 219 201 317 144 184 219 193 162 16 119 263 300 78 300 295 292 292 253 220 234 261 266 258 235 226 223 220 236 244 236 253 262 265 273 277 274 270 276 294 311 319 324 330 332 331 329 322 310 309 309 308
36 37 36 57 64 45 39 30 4 8 11 8 71 183 206 200 179 156 155 202 198 178 189 178 142 131 110 9 254 246 261 168 201 225 206 197 228 211 193 212 111 140 194 184 133 67 129 287 331 34 321 290 277 288 276 256 245 259 273 270 245 229 226 215 219 209 201 237 264 269 269 273 278 285 296 308 315 320 325 330 329 327 325 317 308 307 307 309
26 25 23 36 56 36 19 347 338 42 70 345 60 152 163 178 161 142 122 254 227 211 205 174 139 138 136 274 255 244 268 275 264 264 252 238 241 242 247 256 212 158 166 138 107 15 101 336 322 16 304 277 283 297 292 301 315 282 266 251 223 212 222 234 235 215 207 222 259 268 262 270 292 305 309 312 317 323 328 328 324 322 319 312 309 310 307 305